Weather History for Florala, AL

Change the Weather History Date:

Wednesday, October 30, 2013

  Actual Average (KCEW) Record (KCEW)
Temperature  
Mean Temperature 68 °F -  
Max Temperature 81 °F 78 °F 87 °F (1950)
Min Temperature 55 °F 53 °F 30 °F (2008)
Cooling Degree Days 3    
Growing Degree Days 18 (Base 50)    
Moisture  
Dew Point 58 °F    
Average Humidity 78    
Maximum Humidity 97    
Minimum Humidity 43    
Precipitation  
Precipitation 0.00 in - - ()
Sea Level Pressure  
Sea Level Pressure 30.21 in    
Wind  
Wind Speed 1 mph (ESE)    
Max Wind Speed 7 mph    
Max Gust Speed -    
Visibility 9 miles    
Events      
Averages and records for this station are not official NWS values.
T = Trace of Precipitation, MM = Missing Value Source: NWS Daily Summary

Daily Weather History Graph

Daily Weather History Graph

Search for Another Location

Airport:

Trip Planner

Search our weather history database for the weather conditions in past years. The results will help you decide how hot, cold, wet, or windy it might be!

Date:

Astronomy

Oct. 30, 2013 Rise Set
Actual Time 6:59 AM CDT 5:58 PM CDT
Civil Twilight 6:34 AM CDT 6:23 PM CDT
Nautical Twilight 6:05 AM CDT 6:51 PM CDT
Astronomical Twilight 5:37 AM CDT 7:19 PM CDT
Moon 3:02 AM CDT (10/30) 3:30 PM CDT (10/30)
Length of Visible Light 11h 48m
Length of Day
10h 59m
Waning Crescent, 17% of the Moon is Illuminated
Oct 30
Waning Crescent
Nov 3
New
Nov 9
First Quarter
Nov 17
Full
Nov 25
Last Quarter

Hourly Weather History & Observations

Time (CDT) Temp. Heat Index Dew Point Humidity Pressure Visibility Wind Dir Wind Speed Gust Speed Precip Events Conditions
12:58 AM 57.0 °F - 55.0 °F 93% 30.25 in 10.0 mi Calm Calm - N/A   Clear
1:58 AM 59.0 °F - 55.9 °F 90% 30.24 in 10.0 mi Calm Calm - N/A   Clear
2:58 AM 55.9 °F - 55.0 °F 97% 30.23 in 7.0 mi Calm Calm - N/A   Clear
3:58 AM 57.9 °F - 55.9 °F 93% 30.24 in 8.0 mi Calm Calm - N/A   Clear
4:58 AM 59.0 °F - 55.9 °F 90% 30.24 in 8.0 mi Calm Calm - N/A   Clear
5:58 AM 57.9 °F - 55.0 °F 90% 30.25 in 8.0 mi Calm Calm - N/A   Clear
6:58 AM 55.0 °F - 54.0 °F 96% 30.26 in 5.0 mi Calm Calm - N/A   Clear
7:58 AM 60.1 °F - 57.0 °F 90% 30.26 in 7.0 mi East 3.5 mph - N/A   Clear
8:58 AM 64.0 °F - 59.0 °F 84% 30.27 in 8.0 mi ESE 4.6 mph - N/A   Clear
9:58 AM 70.0 °F - 60.1 °F 71% 30.28 in 10.0 mi East 4.6 mph - N/A   Clear
10:58 AM 73.9 °F - 60.1 °F 62% 30.26 in 10.0 mi ESE 4.6 mph - N/A   Clear
11:58 AM 78.1 °F - 57.9 °F 50% 30.25 in 10.0 mi ESE 5.8 mph - N/A   Clear
12:58 PM 79.0 °F - 55.9 °F 45% 30.23 in 10.0 mi South 6.9 mph - N/A   Clear
1:58 PM 81.0 °F 81.1 °F 57.9 °F 45% 30.20 in 10.0 mi SE 5.8 mph - N/A   Partly Cloudy
2:58 PM 80.1 °F 80.2 °F 55.9 °F 43% 30.17 in 10.0 mi ESE 4.6 mph - N/A   Clear
3:58 PM 79.0 °F - 59.0 °F 50% 30.16 in 10.0 mi ESE 3.5 mph - N/A   Clear
4:58 PM 75.0 °F - 64.0 °F 69% 30.15 in 10.0 mi Calm Calm - N/A   Clear
5:58 PM 73.0 °F - 62.1 °F 68% 30.14 in 10.0 mi Calm Calm - N/A   Clear
6:58 PM 66.9 °F - 63.0 °F 87% 30.15 in 10.0 mi Calm Calm - N/A   Clear
7:58 PM 66.0 °F - 62.1 °F 87% 30.17 in 10.0 mi Calm Calm - N/A   Clear
8:58 PM 63.0 °F - 60.1 °F 90% 30.17 in 10.0 mi Calm Calm - N/A   Clear
9:58 PM 64.0 °F - 60.1 °F 87% 30.16 in 10.0 mi Calm Calm - N/A   Clear
10:58 PM 63.0 °F - 60.1 °F 90% 30.16 in 9.0 mi Calm Calm - N/A   Clear
11:58 PM 61.0 °F - 59.0 °F 93% 30.14 in 6.0 mi Calm Calm - N/A   Clear